Location: Caltech
(34.1382°N, 118.1253°W)
Time: 19:23:17
(UTC-07:00)

Courier 1B - Visible Passes

Search period start: 04 August 2015 00:00
Search period end: 14 August 2015 00:00
Orbit: 963 x 1209 km, 28.3° (Epoch: 04 August)

Date Brightness Start Highest point End Pass type
(mag) Time Alt. Az. Time Alt. Az. Time Alt. Az.
04 Aug 9.1 21:11:59 10° WSW 21:16:44 21° SSW 21:19:56 15° SSE visible
05 Aug 8.9 20:17:54 10° WSW 20:23:10 26° SSW 20:28:26 10° SSE visible
06 Aug 9.5 21:20:28 10° SW 21:22:58 12° SSW 21:25:15 10° S visible
07 Aug 9.4 20:25:26 10° WSW 20:29:25 17° SSW 20:33:15 10° S visible
